Content
SEND FEEDBACK

Daily
Averages
Monthly
Summary
United States of America

WALNUT GROVE, MISSISSIPPI


Home > North America > United States > Mississippi
Elevation: 37 feet     Latitude: 32 30N     Longitude: 088 50W

WEATHER
 
SELECT A DAY
Number of Records: 217,346;   Date Range: 1/1/95 - 9/30/14
 
SHARE

PRINT THIS DATA

[ ← Previous Day ]
WEATHER ALMANAC - FEBRUARY 13, 2013
[ Next Day → ]
[ °C ]   °F
Weather ElementAverageHighLow
Temperature47.1 °F51.8 °F (2:33 am)37 °F (10:58 pm)
Dewpoint42.7 °F48.9 °F (1:58 am)36 °F (10:58 pm)
Humidity85.3 %100 % (12:39 am)64 % (2:58 pm)
Barometer29.92 in30.08 in (11:58 pm)29.79 in (12:39 am)
Wind Speed8 mph16.1 mph (6:28 am)
Wind Gust21.9 mph (6:58 am)
Weather ElementAverage
Visibility9.7 mi
Wind DirectionWSW (243.9 °)

Weather ElementTotal
Precipitation---
Heating Degree Days20.6 (Base 65)
Averaged from 33 records on February 13, 2013
WEATHER CONDITIONS BREAKOUT
WIND DIRECTION BREAKOUT
WEATHER BY HOUR - FEBRUARY 13, 2013
[ °C ]   °F
Local TimeTemperatureDewpointHumidityBarometerVisibilityWind DirectionWind SpeedGust SpeedPrecipitationEventsConditions
12:39 AM48.2 °F48.2 °F100 %29.79 in10.0 miSSW (210°)4.6 mphOvercast
12:47 AM48.2 °F48.2 °F100 %29.79 in10.0 miSW (220°)4.6 mphOvercast
12:58 AM48.9 °F48.0 °F97 %29.80 in10.0 miSSW (210°)4.6 mphOvercast
1:58 AM50.0 °F48.9 °F96 %29.79 in10.0 miWSW (240°)8.1 mphOvercast
2:33 AM51.8 °F48.2 °F88 %29.80 in10.0 miWSW (250°)8.1 mphOvercast
2:56 AM50.0 °F48.2 °F94 %29.81 in10.0 miWSW (250°)9.2 mphMostly Cloudy
2:58 AM50.0 °F48.9 °F96 %29.81 in10.0 miWSW (250°)8.1 mphMostly Cloudy
3:15 AM50.0 °F48.2 °F94 %29.82 in10.0 miWSW (250°)10.4 mph16.1 mphScattered Clouds
3:58 AM50.0 °F48.0 °F93 %29.83 in10.0 miWSW (250°)10.4 mphScattered Clouds
4:06 AM50.0 °F48.2 °F94 %29.83 in10.0 miWSW (250°)10.4 mphMostly Cloudy
4:58 AM50.0 °F46.0 °F86 %29.86 in10.0 miWest (260°)11.5 mph18.4 mphMostly Cloudy
5:58 AM48.9 °F45.0 °F86 %29.87 in10.0 miWest (280°)13.8 mphOvercast
6:28 AM48.2 °F44.6 °F87 %29.86 in10.0 miWNW (290°)16.1 mph19.6 mphOvercast
6:58 AM46.9 °F44.1 °F90 %29.91 in10.0 miWNW (290°)12.7 mph21.9 mphOvercast
7:34 AM46.4 °F42.8 °F87 %29.92 in10.0 miWNW (290°)11.5 mphOvercast
7:58 AM46.9 °F42.1 °F83 %29.93 in10.0 miWest (270°)5.8 mphOvercast
8:58 AM46.9 °F42.1 °F83 %29.96 in10.0 miWest (270°)6.9 mph17.3 mphOvercast
9:58 AM46.9 °F41.0 °F80 %29.97 in10.0 miWNW (290°)8.1 mph19.6 mphOvercast
10:58 AM48.0 °F41.0 °F77 %29.98 in10.0 miWNW (290°)6.9 mphOvercast
11:58 AM48.0 °F39.9 °F74 %29.95 in10.0 miWNW (290°)8.1 mphOvercast
12:58 PM50.0 °F39.9 °F68 %29.95 in10.0 miWNW (300°)9.2 mphOvercast
1:39 PM48.2 °F39.2 °F71 %29.96 in10.0 miNW (320°)16.1 mph21.9 mphOvercast
1:58 PM50.0 °F39.9 °F68 %29.95 in10.0 miNNW (340°)15.0 mph21.9 mphOvercast
2:58 PM48.9 °F37.0 °F64 %29.98 in10.0 miNW (320°)10.4 mphOvercast
3:58 PM48.0 °F39.0 °F71 %29.99 in10.0 miNW (310°)10.4 mphOvercast
4:58 PM46.9 °F37.9 °F71 %30.00 in10.0 miNW (320°)9.2 mphOvercast
5:58 PM46.0 °F37.9 °F73 %30.02 in10.0 miWNW (300°)4.6 mphOvercast
6:58 PM45.0 °F39.9 °F82 %30.04 in10.0 miCalmOvercast
7:58 PM44.1 °F39.0 °F82 %30.05 in10.0 miNNW (330°)4.6 mphOvercast
8:58 PM41.0 °F39.0 °F93 %30.06 in10.0 miNW (310°)3.5 mphClear
9:58 PM39.0 °F37.9 °F96 %30.07 in7.0 miCalmClear
10:58 PM37.0 °F36.0 °F96 %30.07 in5.0 miCalmClear
11:58 PM37.0 °F36.0 °F96 %30.08 in8.0 miCalmClear
Hourly data recorded from KMEI, located miles away from Walnut Grove, Mississippi







STORIES FROM OUR PARTNERS